N3898R X59-KMLB

Flight info

Callsign N3898R
Flight time N/A
Altitude 2000
Route VFR
Aircraft C172/L-SDE3/L

Departure

Time N/A
Airport X59

Arrival

Time 2026-04-26 15:54
Airport Melbourne Orlando International Airport (KMLB)
Time Latitude Longitude Altitude Speed Heading
2026-04-26 15:53 28.10762 -80.64949 27 ft 0 kts 266°
2026-04-26 15:58 28.10761 -80.64960 27 ft 3 kts 244°
2026-04-26 15:59 28.10763 -80.64967 27 ft 6 kts
2026-04-26 15:59 28.10834 -80.64968 27 ft 15 kts 351°
2026-04-26 15:59 28.10854 -80.64973 27 ft 0 kts 330°
2026-04-26 15:59 28.10851 -80.65071 28 ft 30 kts 269°
2026-04-26 16:00 28.10843 -80.65256 30 ft 23 kts 264°
2026-04-26 16:00 28.10752 -80.65282 30 ft 14 kts 156°
2026-04-26 16:00 28.10728 -80.65282 30 ft 0 kts 231°
2026-04-26 16:04 28.10695 -80.65284 30 ft 0 kts 175°
2026-04-26 16:04 28.10667 -80.65198 30 ft 26 kts 84°
2026-04-26 16:05 28.10676 -80.65006 27 ft 32 kts 86°
2026-04-26 16:05 28.10687 -80.64809 26 ft 36 kts 86°
2026-04-26 16:05 28.10696 -80.64584 23 ft 40 kts 86°
2026-04-26 16:05 28.10708 -80.64380 23 ft 40 kts 86°
2026-04-26 16:06 28.10718 -80.64169 24 ft 15 kts 86°
2026-04-26 16:06 28.10715 -80.64151 23 ft 0 kts 122°
2026-04-26 16:06 28.10713 -80.64148 23 ft 1 kts 131°
2026-04-26 16:07 28.10702 -80.64143 23 ft 0 kts 178°
2026-04-26 16:09 28.10679 -80.64145 23 ft 10 kts 189°
2026-04-26 16:09 28.10628 -80.64175 23 ft 15 kts 258°
2026-04-26 16:09 28.10612 -80.64593 51 ft 65 kts 261°
2026-04-26 16:10 28.10615 -80.64889 182 ft 64 kts 266°
2026-04-26 16:10 28.10625 -80.65172 268 ft 67 kts 265°
2026-04-26 16:10 28.10657 -80.65524 378 ft 71 kts 278°
2026-04-26 16:10 28.10890 -80.66013 545 ft 76 kts 292°
2026-04-26 16:11 28.11175 -80.66521 720 ft 79 kts 294°
2026-04-26 16:11 28.11320 -80.66773 805 ft 79 kts 295°
2026-04-26 16:11 28.11610 -80.67291 980 ft 80 kts 294°
2026-04-26 16:11 28.11961 -80.67921 1185 ft 81 kts 292°
2026-04-26 16:12 28.12168 -80.68375 1328 ft 81 kts 288°
2026-04-26 16:12 28.12392 -80.68899 1488 ft 81 kts 289°
2026-04-26 16:12 28.12973 -80.70302 1534 ft 98 kts 288°
2026-04-26 16:13 28.13329 -80.71191 1532 ft 102 kts 288°
2026-04-26 16:13 28.13714 -80.72173 1500 ft 107 kts 288°
2026-04-26 16:13 28.13793 -80.73235 1351 ft 112 kts 243°
2026-04-26 16:13 28.13564 -80.74244 1083 ft 121 kts 279°
2026-04-26 16:14 28.14238 -80.74507 947 ft 140 kts 25°
2026-04-26 16:14 28.14911 -80.74155 1233 ft 109 kts 360°
2026-04-26 16:14 28.16256 -80.74089 1171 ft 112 kts 354°
2026-04-26 16:15 28.16843 -80.74290 1163 ft 98 kts 305°
2026-04-26 16:15 28.17018 -80.74921 1152 ft 92 kts 272°
2026-04-26 16:15 28.16906 -80.75574 1213 ft 97 kts 253°
2026-04-26 16:16 28.15984 -80.76427 1322 ft 76 kts 220°
2026-04-26 16:16 28.15542 -80.76677 1284 ft 82 kts 200°
2026-04-26 16:16 28.15323 -80.77215 1271 ft 96 kts 283°
2026-04-26 16:16 28.15805 -80.77639 1393 ft 90 kts 331°
2026-04-26 16:17 28.16385 -80.77712 1415 ft 95 kts 345°
2026-04-26 16:17 28.16984 -80.77826 1484 ft 92 kts 342°
2026-04-26 16:17 28.17582 -80.77907 1517 ft 98 kts 348°
2026-04-26 16:17 28.18203 -80.77969 1577 ft 101 kts 349°
2026-04-26 16:18 28.18841 -80.77964 1603 ft 113 kts 353°
2026-04-26 16:18 28.20185 -80.77929 1487 ft 100 kts 355°
2026-04-26 16:19 28.21320 -80.77423 1500 ft 117 kts 26°
2026-04-26 16:19 28.21880 -80.77021 1500 ft 126 kts 30°
2026-04-26 16:19 28.23346 -80.75885 1641 ft 117 kts 30°
2026-04-26 16:20 28.23912 -80.75429 1639 ft 108 kts 34°
2026-04-26 16:20 28.24918 -80.74669 1596 ft 106 kts 18°
2026-04-26 16:20 28.25304 -80.74523 1585 ft 110 kts 11°
2026-04-26 16:21 28.26013 -80.74254 1665 ft 115 kts 14°
2026-04-26 16:21 28.26701 -80.73954 1741 ft 121 kts 22°
2026-04-26 16:21 28.27458 -80.73373 1584 ft 131 kts 37°
2026-04-26 16:21 28.28083 -80.72971 1543 ft 126 kts 18°
2026-04-26 16:22 28.28759 -80.72609 1462 ft 129 kts 21°
2026-04-26 16:22 28.29429 -80.72334 1480 ft 123 kts 12°
2026-04-26 16:22 28.30141 -80.72108 1461 ft 126 kts 12°
2026-04-26 16:22 28.30860 -80.71838 1381 ft 135 kts 15°
2026-04-26 16:23 28.31559 -80.71565 1257 ft 140 kts 12°
2026-04-26 16:23 28.32351 -80.71388 967 ft 148 kts
2026-04-26 16:23 28.33225 -80.71343 885 ft 139 kts 354°
2026-04-26 16:23 28.34141 -80.71381 659 ft 144 kts 351°
2026-04-26 16:24 28.35063 -80.71485 581 ft 137 kts 349°
2026-04-26 16:24 28.35927 -80.71596 589 ft 128 kts 349°
2026-04-26 16:24 28.36769 -80.71789 479 ft 132 kts 342°
2026-04-26 16:24 28.37504 -80.71971 393 ft 134 kts 341°
2026-04-26 16:25 28.38359 -80.72214 381 ft 128 kts 340°
2026-04-26 16:25 28.39165 -80.72458 405 ft 125 kts 339°
2026-04-26 16:25 28.39921 -80.72696 404 ft 125 kts 339°
2026-04-26 16:25 28.40689 -80.72937 404 ft 124 kts 339°
2026-04-26 16:26 28.41322 -80.73135 404 ft 124 kts 339°
2026-04-26 16:26 28.41813 -80.73287 404 ft 124 kts 339°
2026-04-26 16:26 28.42454 -80.73486 405 ft 124 kts 339°
2026-04-26 16:26 28.43210 -80.73656 403 ft 126 kts 350°
2026-04-26 16:27 28.44019 -80.73698 404 ft 127 kts 352°
2026-04-26 16:27 28.44840 -80.73729 404 ft 127 kts 353°
2026-04-26 16:27 28.45677 -80.73760 404 ft 126 kts 352°
2026-04-26 16:27 28.46518 -80.73814 404 ft 126 kts 350°
2026-04-26 16:28 28.47350 -80.73874 404 ft 126 kts 350°
2026-04-26 16:28 28.48141 -80.73930 403 ft 126 kts 351°
2026-04-26 16:28 28.48983 -80.73994 404 ft 126 kts 350°
2026-04-26 16:28 28.49808 -80.74052 470 ft 121 kts 351°
2026-04-26 16:29 28.50536 -80.74189 548 ft 117 kts 341°
2026-04-26 16:29 28.51320 -80.74150 540 ft 128 kts 15°
2026-04-26 16:29 28.51928 -80.73496 586 ft 131 kts 52°
2026-04-26 16:29 28.52544 -80.72601 784 ft 124 kts 47°
2026-04-26 16:30 28.52679 -80.72418 780 ft 126 kts 47°
2026-04-26 16:30 28.52970 -80.72021 777 ft 130 kts 47°
2026-04-26 16:30 28.53337 -80.71518 775 ft 132 kts 47°
2026-04-26 16:30 28.53855 -80.70812 772 ft 134 kts 47°
2026-04-26 16:31 28.54428 -80.70033 770 ft 135 kts 47°
2026-04-26 16:31 28.54944 -80.69333 769 ft 135 kts 47°
2026-04-26 16:31 28.55575 -80.68800 769 ft 131 kts 21°
2026-04-26 16:31 28.56601 -80.68281 766 ft 127 kts 19°
2026-04-26 16:32 28.57081 -80.68047 765 ft 124 kts 19°
2026-04-26 16:32 28.57874 -80.67832 757 ft 124 kts 353°
2026-04-26 16:32 28.58578 -80.67965 658 ft 132 kts 347°
2026-04-26 16:32 28.59306 -80.68058 370 ft 146 kts 344°
2026-04-26 16:33 28.60068 -80.68456 151 ft 137 kts 322°
2026-04-26 16:33 28.60718 -80.68903 116 ft 98 kts 322°
2026-04-26 16:33 28.61158 -80.69173 71 ft 58 kts 322°
2026-04-26 16:33 28.61676 -80.69510 64 ft 80 kts 320°
2026-04-26 16:34 28.61997 -80.69728 63 ft 88 kts 321°
2026-04-26 16:34 28.62488 -80.70059 64 ft 80 kts 323°
2026-04-26 16:34 28.62938 -80.70351 79 ft 90 kts 323°
2026-04-26 16:34 28.63497 -80.70720 165 ft 98 kts 322°
2026-04-26 16:35 28.63918 -80.71057 333 ft 92 kts 306°
2026-04-26 16:35 28.64055 -80.71323 432 ft 86 kts 284°
2026-04-26 16:35 28.64091 -80.71619 532 ft 82 kts 263°
2026-04-26 16:35 28.63910 -80.72156 742 ft 77 kts 242°
2026-04-26 16:36 28.63751 -80.72508 886 ft 75 kts 241°
2026-04-26 16:36 28.63642 -80.72741 986 ft 74 kts 241°
2026-04-26 16:36 28.63519 -80.73001 1100 ft 72 kts 241°
2026-04-26 16:36 28.63315 -80.73427 1291 ft 70 kts 241°
2026-04-26 16:37 28.63128 -80.73814 1472 ft 67 kts 241°
2026-04-26 16:37 28.62895 -80.74294 1505 ft 83 kts 241°
2026-04-26 16:37 28.62600 -80.74905 1484 ft 98 kts 241°
2026-04-26 16:37 28.62322 -80.75485 1477 ft 105 kts 241°
2026-04-26 16:38 28.61968 -80.76222 1474 ft 109 kts 241°
2026-04-26 16:38 28.61632 -80.76907 1467 ft 104 kts 237°
2026-04-26 16:38 28.61309 -80.77251 1462 ft 101 kts 212°
2026-04-26 16:38 28.60704 -80.77469 1486 ft 103 kts 195°
2026-04-26 16:39 28.60063 -80.77604 1965 ft 74 kts 197°
2026-04-26 16:39 28.59519 -80.77724 1997 ft 89 kts 195°
2026-04-26 16:39 28.58901 -80.77854 1991 ft 101 kts 195°
2026-04-26 16:39 28.58518 -80.77937 1987 ft 103 kts 195°
2026-04-26 16:40 28.57977 -80.78056 1984 ft 106 kts 195°
2026-04-26 16:40 28.57615 -80.78134 1983 ft 107 kts 195°
2026-04-26 16:40 28.57202 -80.78223 1983 ft 108 kts 195°
2026-04-26 16:40 28.56359 -80.78198 1982 ft 113 kts 175°
2026-04-26 16:41 28.55723 -80.78157 1980 ft 111 kts 189°
2026-04-26 16:41 28.55452 -80.78184 1981 ft 110 kts 191°
2026-04-26 16:41 28.55144 -80.78217 1981 ft 111 kts 191°
2026-04-26 16:41 28.54897 -80.78248 1980 ft 111 kts 191°
2026-04-26 16:42 28.54639 -80.78283 1981 ft 111 kts 192°
2026-04-26 16:42 28.54367 -80.78320 1981 ft 111 kts 192°
2026-04-26 16:42 28.54096 -80.78357 1981 ft 111 kts 192°
2026-04-26 16:42 28.53726 -80.78407 1981 ft 111 kts 192°
2026-04-26 16:43 28.53269 -80.78470 1980 ft 111 kts 192°
2026-04-26 16:43 28.52848 -80.78529 1980 ft 111 kts 192°
2026-04-26 16:43 28.52342 -80.78599 1981 ft 111 kts 192°
2026-04-26 16:43 28.51694 -80.78689 1980 ft 112 kts 192°
2026-04-26 16:44 28.51184 -80.78760 1981 ft 112 kts 192°
2026-04-26 16:44 28.50529 -80.78846 1981 ft 112 kts 191°
2026-04-26 16:44 28.50071 -80.78906 1980 ft 112 kts 191°
2026-04-26 16:44 28.49329 -80.79008 1980 ft 112 kts 192°
2026-04-26 16:45 28.48656 -80.79102 1981 ft 112 kts 192°
2026-04-26 16:45 28.48279 -80.79154 1980 ft 112 kts 192°
2026-04-26 16:45 28.47902 -80.79206 1981 ft 112 kts 192°
2026-04-26 16:45 28.47538 -80.79256 1981 ft 112 kts 192°
2026-04-26 16:46 28.47052 -80.79323 1980 ft 112 kts 192°
2026-04-26 16:46 28.46498 -80.79396 1981 ft 112 kts 191°
2026-04-26 16:46 28.45959 -80.79471 1980 ft 112 kts 191°
2026-04-26 16:46 28.45365 -80.79553 1982 ft 112 kts 192°
2026-04-26 16:47 28.44531 -80.79669 1982 ft 112 kts 191°
2026-04-26 16:47 28.43598 -80.79797 1982 ft 112 kts 191°
2026-04-26 16:47 28.42738 -80.79918 1983 ft 112 kts 192°
2026-04-26 16:47 28.42037 -80.80010 1984 ft 112 kts 192°
2026-04-26 16:48 28.41242 -80.80109 1982 ft 112 kts 192°
2026-04-26 16:48 28.40517 -80.80199 1982 ft 111 kts 191°
2026-04-26 16:48 28.39728 -80.80296 1985 ft 111 kts 192°
2026-04-26 16:48 28.38967 -80.80396 1984 ft 111 kts 191°
2026-04-26 16:49 28.38324 -80.80482 1983 ft 111 kts 191°
2026-04-26 16:49 28.37475 -80.80590 1982 ft 111 kts 191°
2026-04-26 16:49 28.36501 -80.80730 1988 ft 111 kts 192°
2026-04-26 16:49 28.35882 -80.80814 1986 ft 111 kts 191°
2026-04-26 16:50 28.35312 -80.80894 1986 ft 111 kts 192°
2026-04-26 16:50 28.34627 -80.80991 1984 ft 112 kts 191°
2026-04-26 16:50 28.34024 -80.81072 1985 ft 111 kts 191°
2026-04-26 16:50 28.33529 -80.81142 1985 ft 111 kts 191°
2026-04-26 16:51 28.32577 -80.81267 1982 ft 111 kts 191°
2026-04-26 16:51 28.31833 -80.81364 1987 ft 111 kts 192°
2026-04-26 16:51 28.31271 -80.81428 1984 ft 112 kts 186°
2026-04-26 16:51 28.30464 -80.81159 1987 ft 117 kts 159°
2026-04-26 16:52 28.29803 -80.80749 1988 ft 118 kts 156°
2026-04-26 16:52 28.29519 -80.80562 1987 ft 118 kts 155°
2026-04-26 16:52 28.28790 -80.80079 1986 ft 118 kts 155°
2026-04-26 16:52 28.28310 -80.79755 1986 ft 118 kts 154°
2026-04-26 16:53 28.27780 -80.79402 1985 ft 118 kts 155°
2026-04-26 16:53 28.27111 -80.78962 1985 ft 118 kts 155°
2026-04-26 16:53 28.26371 -80.78476 1984 ft 118 kts 155°
2026-04-26 16:53 28.25625 -80.77982 1984 ft 118 kts 155°
2026-04-26 16:54 28.25007 -80.77570 1984 ft 118 kts 155°
2026-04-26 16:54 28.24588 -80.77289 1984 ft 118 kts 155°
2026-04-26 16:54 28.24207 -80.77030 1984 ft 118 kts 154°
2026-04-26 16:54 28.23620 -80.76661 1983 ft 117 kts 160°
2026-04-26 16:55 28.22805 -80.76272 1936 ft 111 kts 164°
2026-04-26 16:55 28.22007 -80.75890 1824 ft 111 kts 163°
2026-04-26 16:55 28.21633 -80.75711 1771 ft 111 kts 163°
2026-04-26 16:55 28.21124 -80.75466 1700 ft 111 kts 163°
2026-04-26 16:56 28.20005 -80.74923 1543 ft 111 kts 163°
2026-04-26 16:56 28.19374 -80.74617 1455 ft 111 kts 163°
2026-04-26 16:56 28.18509 -80.74197 1333 ft 111 kts 163°
2026-04-26 16:57 28.17817 -80.73864 1328 ft 105 kts 163°
2026-04-26 16:57 28.17223 -80.73572 1332 ft 101 kts 163°
2026-04-26 16:57 28.16017 -80.72955 1336 ft 96 kts 163°
2026-04-26 16:58 28.15409 -80.72626 1336 ft 96 kts 157°
2026-04-26 16:58 28.15062 -80.72258 1335 ft 101 kts 131°
2026-04-26 16:58 28.14519 -80.70959 1343 ft 108 kts 118°
2026-04-26 16:59 28.14311 -80.70416 1342 ft 112 kts 118°
2026-04-26 16:59 28.13886 -80.69302 1342 ft 117 kts 119°
2026-04-26 17:00 28.13437 -80.68122 1342 ft 120 kts 118°
2026-04-26 17:00 28.12966 -80.66890 1342 ft 121 kts 118°
2026-04-26 17:00 28.12724 -80.66261 1341 ft 122 kts 118°
2026-04-26 17:01 28.12503 -80.65690 1292 ft 124 kts 118°
2026-04-26 17:01 28.12294 -80.65077 1223 ft 128 kts 108°
2026-04-26 17:01 28.12291 -80.64189 1140 ft 132 kts 85°
2026-04-26 17:01 28.12412 -80.63174 1043 ft 133 kts 83°
2026-04-26 17:02 28.12365 -80.62418 946 ft 121 kts 114°
2026-04-26 17:02 28.11962 -80.61803 791 ft 112 kts 150°
2026-04-26 17:02 28.11508 -80.61575 675 ft 108 kts 173°
2026-04-26 17:02 28.11138 -80.61557 581 ft 102 kts 195°
2026-04-26 17:03 28.10810 -80.61710 484 ft 96 kts 218°
2026-04-26 17:03 28.10570 -80.62082 487 ft 80 kts 261°
2026-04-26 17:03 28.10686 -80.62599 462 ft 92 kts 280°
2026-04-26 17:03 28.10695 -80.63216 360 ft 90 kts 263°
2026-04-26 17:04 28.10663 -80.63816 189 ft 76 kts 261°
2026-04-26 17:04 28.10624 -80.64315 68 ft 65 kts 263°
2026-04-26 17:04 28.10599 -80.64737 25 ft 50 kts 267°
2026-04-26 17:04 28.10591 -80.64984 27 ft 39 kts 266°
2026-04-26 17:05 28.10583 -80.65121 28 ft 33 kts 266°
2026-04-26 17:05 28.10628 -80.65278 30 ft 20 kts 359°
2026-04-26 17:05 28.10648 -80.65279 30 ft 0 kts 356°
2026-04-26 17:06 28.10651 -80.65279 30 ft 4 kts 355°
2026-04-26 17:06 28.10707 -80.65267 30 ft 7 kts 79°
2026-04-26 17:06 28.10729 -80.65219 29 ft 10 kts 353°
2026-04-26 17:07 28.10757 -80.65222 29 ft 0 kts 358°